Weather History for NW Arkansas Airport, AR

Change the Weather History Date:

Sunday, August 24, 2014

  Actual Average Record
Temperature  
Mean Temperature 81 °F -  
Max Temperature 97 °F - - ()
Min Temperature 66 °F - - ()
Cooling Degree Days 16    
Growing Degree Days 31 (Base 50)    
Moisture  
Dew Point 66 °F    
Average Humidity 63    
Maximum Humidity 93    
Minimum Humidity 33    
Precipitation  
Precipitation 0.00 in - - ()
Sea Level Pressure  
Sea Level Pressure 29.93 in    
Wind  
Wind Speed 5 mph (SSW)    
Max Wind Speed 12 mph    
Max Gust Speed -    
Visibility 10 miles    
Events      
T = Trace of Precipitation, MM = Missing Value Source: NWS Daily Summary

Daily Weather History Graph

Daily Weather History Graph

Search for Another Location

Airport:

Trip Planner

Search our weather history database for the weather conditions in past years. The results will help you decide how hot, cold, wet, or windy it might be!

Date:

Astronomy

Aug. 24, 2014 Rise Set
Actual Time 6:42 AM CDT 7:56 PM CDT
Civil Twilight 6:15 AM CDT 8:22 PM CDT
Nautical Twilight 5:43 AM CDT 8:54 PM CDT
Astronomical Twilight 5:10 AM CDT 9:27 PM CDT
Moon 5:53 AM CDT (8/24) 7:15 PM CDT (8/24)
Length of Visible Light 14h 07m
Length of Day
13h 13m
Waning Crescent, 1% of the Moon is Illuminated
Aug 24
Waning Crescent
Aug 25
New
Sep 2
First Quarter
Sep 8
Full
Sep 15
Last Quarter

Hourly Weather History & Observations

Time (CDT) Temp. Heat Index Dew Point Humidity Pressure Visibility Wind Dir Wind Speed Gust Speed Precip Events Conditions
12:53 AM 75.0 °F - 66.9 °F 76% 29.93 in 10.0 mi South 5.8 mph - N/A   Clear
1:53 AM 73.9 °F - 68.0 °F 82% 29.92 in 10.0 mi South 4.6 mph - N/A   Clear
2:53 AM 70.0 °F - 66.0 °F 87% 29.92 in 10.0 mi SW 4.6 mph - N/A   Clear
3:53 AM 70.0 °F - 66.0 °F 87% 29.91 in 10.0 mi Calm Calm - N/A   Clear
4:53 AM 70.0 °F - 66.9 °F 90% 29.91 in 10.0 mi Calm Calm - N/A   Clear
5:53 AM 68.0 °F - 64.9 °F 90% 29.93 in 10.0 mi Calm Calm - N/A   Clear
6:53 AM 66.0 °F - 64.0 °F 93% 29.94 in 7.0 mi Calm Calm - N/A   Clear
7:53 AM 72.0 °F - 68.0 °F 87% 29.95 in 10.0 mi Calm Calm - N/A   Clear
8:53 AM 78.1 °F - 69.1 °F 74% 29.95 in 10.0 mi South 5.8 mph - N/A   Clear
9:53 AM 84.0 °F 87.8 °F 69.1 °F 61% 29.96 in 10.0 mi SSW 10.4 mph - N/A   Clear
10:53 AM 88.0 °F 92.1 °F 69.1 °F 53% 29.96 in 10.0 mi SSW 11.5 mph - N/A   Clear
11:53 AM 91.0 °F 95.6 °F 69.1 °F 48% 29.96 in 10.0 mi WSW 10.4 mph - N/A   Clear
12:53 PM 91.9 °F 96.9 °F 69.1 °F 47% 29.95 in 10.0 mi West 6.9 mph - N/A   Clear
1:53 PM 93.9 °F 97.0 °F 66.0 °F 40% 29.94 in 10.0 mi SW 8.1 mph - N/A   Clear
2:53 PM 93.9 °F 96.1 °F 64.9 °F 38% 29.92 in 10.0 mi North - - N/A   Clear
3:53 PM 95.0 °F 96.0 °F 63.0 °F 34% 29.90 in 10.0 mi Variable 5.8 mph - N/A   Clear
4:53 PM 96.1 °F 98.3 °F 64.0 °F 35% 29.88 in 10.0 mi WSW 6.9 mph - N/A   Clear
5:53 PM 93.9 °F 94.0 °F 61.0 °F 33% 29.89 in 10.0 mi SW 10.4 mph - N/A   Clear
6:53 PM 91.9 °F 94.1 °F 64.9 °F 41% 29.88 in 10.0 mi SSW 6.9 mph - N/A   Clear
7:53 PM 84.9 °F 86.1 °F 64.0 °F 49% 29.89 in 10.0 mi SSW 4.6 mph - N/A   Clear
9:53 PM 77.0 °F - 64.9 °F 66% 29.92 in 10.0 mi SSE 9.2 mph - N/A   Clear
10:53 PM 77.0 °F - 64.9 °F 66% 29.94 in 10.0 mi SSW 3.5 mph - N/A   Clear
11:53 PM 75.0 °F - 64.9 °F 71% 29.95 in 10.0 mi SW 4.6 mph - N/A   Clear